Weather History for KLWS - December, 2014

Change the Weather History Date:

Friday, December 26, 2014

  Actual Average Record
Temperature  
Mean Temperature 35 °F 33 °F  
Max Temperature 42 °F 39 °F 62 °F (1980)
Min Temperature 27 °F 27 °F 8 °F (1948)
Degree Days  
Heating Degree Days 30 32  
Month to date heating degree days 639 810  
Since 1 July heating degree days 1617 2050  
Cooling Degree Days 0 0  
Month to date cooling degree days 0 0  
Year to date cooling degree days 1095 807  
Moisture  
Dew Point 27 °F    
Average Humidity 72    
Maximum Humidity 89    
Minimum Humidity 55    
Precipitation  
Precipitation 0.00 in 0.03 in 0.60 in (1996)
Month to date precipitation 1.80 0.81  
Year to date precipitation 12.07 12.15  
Snow  
Snow 0.00 in 0.20 in 1.60 in (1983)
Month to date snowfall T 2.9  
Since 1 July snowfall T 4.7  
Snow Depth 0.00 in    
Sea Level Pressure  
Sea Level Pressure 30.30 in    
Wind  
Wind Speed 3 mph (South)    
Max Wind Speed 8 mph    
Max Gust Speed 11 mph    
Visibility 10 miles    
Events      
T = Trace of Precipitation, MM = Missing Value Source: NWS Daily Summary

Daily Weather History Graph

Daily Weather History Graph

Search for Another Location

Airport or City:

Trip Planner

Search our weather history database for the weather conditions in past years. The results will help you decide how hot, cold, wet, or windy it might be!

Date:

Astronomy

Dec. 26, 2014 Rise Set
Actual Time 7:30 AM PST 4:07 PM PST
Civil Twilight 6:55 AM PST 4:42 PM PST
Nautical Twilight 6:17 AM PST 5:20 PM PST
Astronomical Twilight 5:40 AM PST 5:56 PM PST
Moon 10:27 AM PST (12/26) 10:13 PM PST (12/26)
Length of Visible Light 9h 46m
Length of Day
8h 36m
Waxing Crescent, 28% of the Moon is Illuminated
Dec 26
Waxing Crescent
Dec 28
First Quarter
Jan 4
Full
Jan 13
Last Quarter
Jan 20
New

Hourly Weather History & Observations

Time (PST) Temp. Windchill Dew Point Humidity Pressure Visibility Wind Dir Wind Speed Gust Speed Precip Events Conditions
12:56 AM 34.0 °F - 28.9 °F 82% 30.18 in 10.0 mi Calm Calm - N/A   Overcast
1:56 AM 35.1 °F - 30.0 °F 82% 30.19 in 10.0 mi Calm Calm - N/A   Overcast
2:56 AM 33.1 °F 27.7 °F 30.0 °F 89% 30.21 in 10.0 mi South 5.8 mph - N/A   Overcast
3:56 AM 34.0 °F 29.8 °F 28.9 °F 82% 30.22 in 10.0 mi South 4.6 mph - N/A   Overcast
4:56 AM 34.0 °F 27.2 °F 28.9 °F 82% 30.22 in 10.0 mi SSW 8.1 mph - N/A   Mostly Cloudy
5:56 AM 33.1 °F 27.7 °F 28.0 °F 82% 30.25 in 10.0 mi South 5.8 mph - N/A   Overcast
6:56 AM 33.1 °F 28.7 °F 28.0 °F 82% 30.26 in 10.0 mi SSE 4.6 mph - N/A   Clear
7:56 AM 33.1 °F 28.7 °F 28.0 °F 82% 30.28 in 10.0 mi SSW 4.6 mph - N/A   Scattered Clouds
8:56 AM 35.1 °F - 28.9 °F 78% 30.30 in 10.0 mi Calm Calm - N/A   Scattered Clouds
9:56 AM 36.0 °F 32.1 °F 30.0 °F 79% 30.32 in 10.0 mi South 4.6 mph - N/A   Mostly Cloudy
10:56 AM 37.0 °F 33.3 °F 30.0 °F 76% 30.32 in 10.0 mi South 4.6 mph - N/A   Overcast
11:56 AM 37.9 °F - 28.0 °F 68% 30.32 in 10.0 mi Calm Calm - N/A   Overcast
12:56 PM 39.0 °F - 28.9 °F 67% 30.31 in 10.0 mi Calm Calm - N/A   Overcast
1:56 PM 41.0 °F 39.0 °F 27.0 °F 57% 30.31 in 10.0 mi NW 3.5 mph - N/A   Mostly Cloudy
2:56 PM 39.9 °F 37.8 °F 26.1 °F 58% 30.33 in 10.0 mi NW 3.5 mph - N/A   Mostly Cloudy
3:56 PM 39.0 °F - 26.1 °F 60% 30.33 in 10.0 mi Calm Calm - N/A   Mostly Cloudy
4:56 PM 37.0 °F 34.5 °F 26.1 °F 65% 30.35 in 10.0 mi South 3.5 mph - N/A   Partly Cloudy
5:56 PM 35.1 °F 31.0 °F 26.1 °F 70% 30.35 in 10.0 mi South 4.6 mph - N/A   Clear
6:56 PM 33.1 °F - 26.1 °F 75% 30.36 in 10.0 mi Calm Calm - N/A   Clear
7:56 PM 33.1 °F 30.0 °F 25.0 °F 72% 30.37 in 10.0 mi SSW 3.5 mph - N/A   Clear
8:56 PM 30.9 °F - 24.1 °F 76% 30.36 in 10.0 mi Calm Calm - N/A   Clear
9:56 PM 30.0 °F - 25.0 °F 82% 30.37 in 10.0 mi Calm Calm - N/A   Clear
10:56 PM 28.0 °F 22.8 °F 24.1 °F 85% 30.37 in 10.0 mi SE 4.6 mph - N/A   Clear
11:56 PM 30.0 °F - 24.1 °F 79% 30.35 in 10.0 mi Calm Calm - N/A   Clear